QPF
0.00 0.00 0.00 0.00 0.00 0.00 0.00 0.00 0.00 0.00 0.00 0.00 0.00 0.00 0.00 0.00 0.00 0.00 0.00 0.00 0.00 0.00 0.00 0.00 0.00 0.00 0.00 0.00 0.00 0.00 0.00 0.00 0.00 0.00 0.00 0.00 0.00 0.00 0.00 0.00 0.00 0.00 0.00 0.00 0.00
0.00 0.00 0.00 0.00 0.00 0.00 0.00 0.00 0.00 0.00 0.00 0.00 0.00 0.00 0.00 0.00 0.00 0.00 0.00 0.00 0.00 0.00 0.00 0.00 0.00 0.00 0.00 0.00 0.00 0.00 0.00 0.00 0.00 0.00 0.00 0.00 0.00 0.00 0.00 0.00 0.00 0.00 0.00 0.00 0.00
0.00 0.00 0.00 0.00 0.00 0.00 0.00 0.00 0.00 0.00 0.00 0.00 0.00 0.00 0.00 0.00 0.00 0.00 0.00 0.00 0.00 0.00 0.00 0.00 0.00 0.00 0.00 0.00 0.00 0.00 0.00 0.00 0.00 0.00 0.00 0.00 0.00 0.00 0.00 0.00 0.00 0.00 0.00 0.00 0.00
0.00 0.00 0.00 0.00 0.00 0.00 0.00 0.00 0.00 0.00 0.00 0.00 0.00 0.00 0.00 0.00 0.00 0.00 0.00 0.00 0.00 0.00 0.00 0.00 0.00 0.00 0.00 0.00 0.00 0.00 0.00 0.00 0.00 0.00 0.00 0.00 0.00 0.00 0.00 0.00 0.00 0.00 0.00 0.00 0.00
0.00 0.00 0.00 0.00 0.00 0.00 0.00 0.00 0.00 0.00 0.00 0.00 0.00 0.00 0.00 0.00 0.00 0.00 0.00 0.00 0.00 0.00 0.00 0.00 0.00 0.00 0.00 0.00 0.00 0.00 0.00 0.00 0.00 0.00 0.00 0.00 0.00 0.00 0.00 0.00 0.00 0.00 0.00 0.00 0.00
0.00 0.00 0.00 0.00 0.00 0.00 0.00 0.00 0.00 0.00 0.00 0.00 0.00 0.00 0.00 0.00 0.00 0.00 0.00 0.00 0.00 0.00 0.00 0.00 0.00 0.00 0.00 0.00 0.00 0.00 0.00 0.00 0.00 0.00 0.00 0.00 0.00 0.00 0.00 0.00 0.00 0.00 0.00 0.00 0.00
0.00 0.00 0.00 0.00 0.00 0.00 0.00 0.00 0.00 0.00 0.00 0.00 0.00 0.00 0.00 0.00 0.00 0.00 0.00 0.00 0.00 0.00 0.00 0.00 0.00 0.00 0.00 0.00 0.00 0.00 0.00 0.00 0.00 0.00 0.00 0.00 0.00 0.00 0.00 0.00 0.00 0.00 0.00 0.00 0.00
0.00 0.00 0.00 0.00 0.00 0.00 0.00 0.00 0.00 0.00 0.00 0.00 0.00 0.00 0.00 0.00 0.00 0.00 0.00 0.00 0.00 0.00 0.00 0.00 0.00 0.00 0.00 0.00 0.00 0.00 0.00 0.00 0.00 0.00 0.00 0.00 0.00 0.00 0.00 0.00 0.00 0.00 0.00 0.00 0.00
0.00 0.00 0.00 0.00 0.00 0.00 0.00 0.00 0.00 0.00 0.00 0.00 0.00 0.00 0.00 0.00 0.00 0.00 0.00 0.00 0.00 0.00 0.00 0.00 0.00 0.00 0.00 0.00 0.00 0.00 0.00 0.00 0.00 0.00 0.00 0.00 0.00 0.00 0.00 0.00 0.00 0.00 0.00 0.00 0.00
0.00 0.00 0.00 0.00 0.00 0.00 0.00 0.00 0.00 0.00 0.00 0.00 0.00 0.00 0.00 0.00 0.00 0.00 0.00 0.00 0.00 0.00 0.00 0.00 0.00 0.00 0.00 0.00 0.00 0.00 0.00 0.00 0.00 0.00 0.00 0.00 0.00 0.00 0.00 0.00 0.00 0.00 0.00 0.00 0.00
0.00 0.00 0.00 0.00 0.00 0.00 0.00 0.00 0.00 0.00 0.00 0.00 0.00 0.00 0.00 0.00 0.00 0.00 0.00 0.00 0.00 0.00 0.00 0.00 0.00 0.00 0.00 0.00 0.00 0.00 0.00 0.00 0.00 0.00 0.00 0.00 0.00 0.00 0.00 0.00 0.00 0.00 0.00 0.00 0.00
0.00 0.00 0.00 0.00 0.00 0.00 0.00 0.00 0.00 0.00 0.00 0.00 0.00 0.00 0.00 0.00 0.00 0.00 0.00 0.00 0.00 0.00 0.00 0.00 0.00 0.00 0.00 0.00 0.00 0.00 0.00 0.00 0.00 0.00 0.00 0.00 0.00 0.00 0.00 0.00 0.00 0.00 0.00 0.00 0.00
0.00 0.00 0.00 0.00 0.00 0.00 0.00 0.00 0.00 0.00 0.00 0.00 0.00 0.00 0.00 0.00 0.00 0.00 0.00 0.00 0.00 0.00 0.00 0.00 0.00 0.00 0.00 0.00 0.00 0.00 0.00 0.00 0.00 0.00 0.00 0.00 0.00 0.00 0.00 0.00 0.00 0.00 0.00 0.00 0.00
0.00 0.00 0.00 0.00 0.00 0.00 0.00 0.00 0.00 0.00 0.00 0.00 0.00 0.00 0.00 0.00 0.00 0.00 0.00 0.00 0.00 0.00 0.00 0.00 0.00 0.00 0.00 0.00 0.00 0.00 0.00 0.00 0.00 0.00 0.00 0.00 0.00 0.00 0.00 0.00 0.00 0.00 0.00 0.00 0.00
0.00 0.00 0.00 0.00 0.00 0.00 0.00 0.00 0.00 0.00 0.00 0.00 0.00 0.00 0.00 0.00 0.00 0.00 0.00 0.00 0.00 0.00 0.00 0.00 0.00 0.00 0.00 0.00 0.00 0.00 0.00 0.00 0.00 0.00 0.00 0.00 0.00 0.00 0.00 0.00 0.00 0.00 0.00 0.00 0.00
0.00 0.00 0.00 0.00 0.00 0.00 0.00 0.00 0.00 0.00 0.00 0.00 0.00 0.00 0.00 0.00 0.00 0.00 0.00 0.00 0.00 0.00 0.00 0.00 0.00 0.00 0.00 0.00 0.00 0.00 0.00 0.00 0.00 0.00 0.00 0.00 0.00 0.00 0.00 0.00 0.00 0.00 0.00 0.00 0.00
0.00 0.00 0.00 0.00 0.00 0.00 0.00 0.00 0.00 0.00 0.00 0.00 0.00 0.00 0.00 0.00 0.00 0.00 0.00 0.00 0.00 0.00 0.00 0.00 0.00 0.00 0.00 0.00 0.00 0.00 0.00 0.00 0.00 0.00 0.00 0.00 0.00 0.00 0.00 0.00 0.00 0.00 0.00 0.00 0.00
0.00 0.00 0.00 0.00 0.00 0.00 0.00 0.00 0.00 0.00 0.00 0.00 0.00 0.00 0.00 0.00 0.00 0.00 0.00 0.00 0.00 0.00 0.00 0.00 0.00 0.00 0.00 0.00 0.00 0.00 0.00 0.00 0.00 0.00 0.00 0.00 0.00 0.00 0.00 0.00 0.00 0.00 0.00 0.00 0.00
0.00 0.00 0.00 0.00 0.00 0.00 0.00 0.00 0.00 0.00 0.00 0.00 0.00 0.00 0.00 0.00 0.00 0.00 0.00 0.00 0.00 0.00 0.00 0.00 0.00 0.00 0.00 0.00 0.00 0.00 0.00 0.00 0.00 0.00 0.00 0.00 0.00 0.00 0.00 0.00 0.00 0.00 0.00 0.00 0.00
0.00 0.00 0.00 0.00 0.00 0.00 0.00 0.00 0.00 0.00 0.00 0.00 0.00 0.00 0.00 0.00 0.00 0.00 0.00 0.00 0.00 0.00 0.00 0.00 0.00 0.00 0.00 0.00 0.00 0.00 0.00 0.00 0.00 0.00 0.00 0.00 0.00 0.00 0.00 0.00 0.00 0.00 0.00 0.00 0.00
0.00 0.00 0.00 0.00 0.00 0.00 0.00 0.00 0.00 0.00 0.00 0.00 0.00 0.00 0.00 0.00 0.00 0.00 0.00 0.00 0.00 0.00 0.00 0.00 0.00 0.00 0.00 0.00 0.00 0.00 0.00 0.00 0.00 0.00 0.00 0.00 0.00 0.00 0.00 0.00 0.00 0.00 0.00 0.00 0.00
0.00 0.00 0.00 0.00 0.00 0.00 0.00 0.00 0.00 0.00 0.00 0.00 0.00 0.00 0.00 0.00 0.00 0.00 0.00 0.00 0.00 0.00 0.00 0.00 0.00 0.00 0.00 0.00 0.00 0.00 0.00 0.00 0.00 0.00 0.00 0.00 0.00 0.00 0.00 0.00 0.00 0.00 0.00 0.00 0.00
0.00 0.00 0.00 0.00 0.00 0.00 0.00 0.00 0.00 0.00 0.00 0.00 0.00 0.00 0.00 0.00 0.00 0.00 0.00 0.00 0.00 0.00 0.00 0.00 0.00 0.00 0.00 0.00 0.00 0.00 0.00 0.00 0.00 0.00 0.00 0.00 0.00 0.00 0.00 0.00 0.00 0.00 0.00 0.00 0.00
0.00 0.00 0.00 0.00 0.00 0.00 0.00 0.00 0.00 0.00 0.00 0.00 0.00 0.00 0.00 0.00 0.00 0.00 0.00 0.00 0.00 0.00 0.00 0.00 0.00 0.00 0.00 0.00 0.00 0.00 0.00 0.00 0.00 0.00 0.00 0.00 0.00 0.00 0.00 0.00 0.00 0.00 0.00 0.00 0.00
0.00 0.00 0.00 0.00 0.00 0.00 0.00 0.00 0.00 0.00 0.00 0.00 0.00 0.00 0.00 0.00 0.00 0.00 0.00 0.00 0.00 0.00 0.00 0.00 0.00 0.00 0.00 0.00 0.00 0.00 0.00 0.00 0.00 0.00 0.00 0.00 0.00 0.00 0.00 0.00 0.00 0.00 0.00 0.00 0.00
0.00 0.00 0.00 0.00 0.00 0.00 0.00 0.00 0.00 0.00 0.00 0.00 0.00 0.00 0.00 0.00 0.00 0.00 0.00 0.00 0.00 0.00 0.00 0.00 0.00 0.00 0.00 0.00 0.00 0.00 0.00 0.00 0.00 0.00 0.00 0.00 0.00 0.00 0.00 0.00 0.00 0.00 0.00 0.00 0.00
0.00 0.00 0.00 0.00 0.00 0.00 0.00 0.00 0.00 0.00 0.00 0.00 0.00 0.00 0.00 0.00 0.00 0.00 0.00 0.00 0.00 0.00 0.00 0.00 0.00 0.00 0.00 0.00 0.00 0.00 0.00 0.00 0.00 0.00 0.00 0.00 0.00 0.00 0.00 0.00 0.00 0.00 0.00 0.00 0.00
MSLP
1016.90 1016.36 1015.83 1015.29 1014.74 1014.26 1013.71 1013.17 1012.75 1012.37 1011.95 1011.42 1010.76 1010.47 1009.92 1009.36 1008.60 1007.97 1006.65 1003.85 1003.68 1003.67 1004.32 1004.44 1004.52 1004.61 1004.70 1004.73 1004.73 1005.12 1006.72 1007.74 1007.97 1008.23 1008.06 1008.26 1008.76 1009.14 1008.93 1009.50 1009.80 1010.20 1011.02 1011.80 1012.89
1016.94 1016.42 1015.90 1015.40 1014.78 1014.22 1013.70 1013.09 1012.56 1012.21 1011.76 1011.35 1010.73 1010.15 1010.01 1009.50 1008.88 1006.81 1002.75 1002.74 1002.76 1003.27 1003.94 1004.16 1004.26 1004.07 1004.41 1004.46 1004.55 1005.23 1006.60 1006.62 1006.46 1006.78 1007.30 1007.67 1008.23 1008.50 1009.16 1009.80 1010.13 1010.42 1011.19 1012.19 1012.91
1017.03 1016.42 1015.86 1015.30 1014.81 1014.21 1013.71 1013.07 1012.45 1012.02 1011.66 1011.14 1010.71 1010.10 1009.84 1009.63 1008.51 1003.92 1001.56 1002.00 1002.40 1002.98 1003.53 1003.74 1003.93 1003.99 1004.35 1004.59 1004.80 1005.02 1005.31 1005.26 1005.79 1005.84 1006.32 1007.07 1007.97 1008.19 1009.03 1009.81 1009.51 1009.87 1010.95 1012.07 1012.90
1016.99 1016.41 1015.81 1015.21 1014.56 1014.05 1013.53 1012.98 1012.28 1011.74 1011.38 1011.01 1010.54 1010.03 1009.64 1009.46 1006.64 1002.07 1001.56 1001.45 1002.01 1002.92 1003.53 1003.72 1003.97 1004.23 1004.42 1004.35 1004.08 1004.47 1004.15 1004.40 1004.92 1005.50 1006.21 1007.09 1007.85 1008.26 1008.92 1009.00 1009.44 1010.00 1010.88 1011.89 1012.66
1016.93 1016.26 1015.62 1015.05 1014.40 1013.72 1013.13 1012.65 1012.08 1011.39 1010.95 1010.68 1010.30 1009.90 1009.41 1008.37 1004.49 1001.80 1001.57 1001.63 1002.36 1002.92 1003.20 1003.41 1003.71 1004.01 1004.17 1004.04 1003.70 1003.43 1003.47 1003.96 1004.55 1005.69 1006.61 1007.03 1007.57 1008.10 1008.81 1009.01 1009.88 1010.62 1011.23 1011.92 1012.59
1016.88 1016.10 1015.37 1014.71 1014.09 1013.41 1012.73 1012.13 1011.48 1010.94 1010.49 1010.18 1010.04 1009.82 1009.35 1006.92 1002.08 1001.78 1001.58 1001.97 1002.19 1002.69 1003.10 1003.18 1003.17 1003.13 1003.64 1003.61 1003.33 1002.69 1003.23 1004.06 1004.85 1006.07 1006.56 1006.95 1008.01 1008.18 1009.16 1009.30 1009.96 1010.56 1011.25 1011.85 1012.36
1016.76 1016.13 1015.27 1014.44 1013.72 1013.03 1012.30 1011.55 1010.94 1010.27 1009.76 1009.58 1009.70 1009.52 1008.54 1004.19 1001.69 1001.64 1001.91 1001.78 1002.07 1002.21 1002.79 1002.87 1002.86 1003.12 1003.37 1003.30 1002.83 1002.72 1004.34 1004.77 1005.82 1006.41 1007.04 1007.09 1008.41 1008.82 1008.83 1009.51 1010.04 1010.61 1011.07 1011.54 1011.87
1016.57 1015.91 1015.27 1014.34 1013.43 1012.60 1011.79 1010.96 1010.11 1009.39 1008.85 1009.06 1009.23 1009.04 1006.58 1002.28 1001.71 1001.56 1001.48 1001.64 1001.78 1002.03 1002.39 1002.41 1002.65 1003.05 1003.38 1003.11 1002.93 1003.72 1005.05 1005.40 1006.11 1006.50 1006.72 1006.98 1008.42 1008.84 1009.08 1009.43 1010.01 1010.54 1011.00 1011.28 1011.55
1016.56 1015.74 1014.96 1014.16 1013.35 1012.29 1011.34 1010.32 1009.50 1008.75 1008.70 1009.17 1009.32 1008.41 1004.78 1001.97 1001.77 1000.60 1000.83 1001.20 1001.70 1001.93 1002.16 1002.12 1002.41 1002.98 1003.57 1004.04 1004.60 1004.60 1005.57 1005.98 1006.48 1006.28 1006.55 1007.36 1008.45 1008.78 1009.18 1009.66 1009.98 1010.28 1010.61 1010.79 1011.19
1016.45 1015.67 1014.76 1013.88 1013.01 1012.04 1010.90 1009.47 1009.05 1009.06 1008.95 1009.03 1008.35 1007.68 1003.62 1001.89 1001.04 1000.46 1000.47 1000.63 1001.36 1001.92 1002.41 1002.41 1002.62 1003.20 1004.09 1004.73 1005.23 1005.35 1006.29 1005.80 1005.09 1005.78 1006.53 1007.41 1007.55 1008.36 1008.92 1009.34 1009.67 1010.00 1010.25 1010.40 1010.62
1016.12 1015.39 1014.56 1013.71 1012.72 1011.87 1010.77 1009.43 1009.05 1008.99 1008.55 1007.50 1006.25 1004.95 1002.74 1001.38 1001.06 1000.40 1000.36 1000.70 1001.25 1001.81 1002.51 1002.56 1003.03 1003.19 1003.53 1003.67 1004.08 1004.72 1005.37 1005.24 1004.82 1005.10 1006.17 1006.92 1007.41 1007.86 1008.49 1009.05 1009.32 1009.58 1009.86 1010.13 1010.24
1016.00 1015.22 1014.34 1013.41 1012.39 1011.74 1011.23 1010.44 1009.44 1009.70 1007.88 1005.45 1004.01 1003.07 1001.56 1001.22 1001.19 1000.15 1000.28 1000.93 1001.44 1002.07 1002.42 1003.00 1002.79 1002.42 1002.64 1003.16 1003.65 1004.10 1004.64 1005.15 1005.13 1005.11 1005.96 1007.17 1007.61 1007.78 1008.03 1007.89 1007.89 1008.39 1008.86 1009.10 1009.66
1015.86 1015.00 1014.21 1013.25 1011.97 1011.62 1011.42 1009.73 1008.87 1008.86 1008.30 1003.28 1001.37 1000.61 999.87 1000.85 1000.55 999.94 1000.25 1000.44 1001.07 1001.91 1002.29 1002.54 1002.05 1002.01 1002.33 1002.61 1003.15 1003.81 1003.95 1004.17 1004.74 1005.67 1006.32 1007.29 1008.63 1008.44 1008.09 1007.97 1007.94 1007.89 1008.03 1008.60 1008.85
1015.71 1014.86 1014.36 1013.30 1011.81 1012.19 1010.50 1008.81 1008.95 1008.67 1007.68 1002.83 1000.52 998.87 998.91 999.35 999.60 998.92 999.26 999.99 1000.86 1001.37 1002.26 1002.31 1001.33 1001.63 1001.75 1001.81 1002.19 1002.90 1002.86 1003.32 1004.64 1005.94 1006.43 1006.62 1008.25 1008.12 1007.83 1007.78 1007.62 1007.44 1007.43 1007.58 1008.05
1015.38 1014.75 1014.53 1014.55 1013.82 1012.45 1009.23 1008.58 1008.32 1007.98 1006.76 1001.52 999.47 998.17 998.31 998.57 998.19 998.00 998.45 999.43 1000.28 1001.01 1001.70 1001.32 1000.75 1000.78 1001.07 1000.95 1001.49 1001.91 1002.42 1003.30 1004.38 1005.56 1006.56 1007.26 1007.61 1006.93 1007.22 1007.42 1006.42 1006.08 1006.31 1006.78 1007.36
1014.87 1014.11 1014.21 1013.92 1013.86 1010.45 1009.35 1008.96 1008.37 1008.23 1005.53 1001.52 999.33 998.63 998.86 998.71 997.84 997.75 998.26 998.83 999.69 1000.75 1000.94 1000.82 1000.27 1000.14 1000.08 1000.13 1000.96 1001.08 1002.37 1003.71 1005.16 1006.20 1006.97 1006.45 1006.66 1006.54 1006.10 1004.85 1004.29 1005.12 1005.32 1005.79 1006.42
1014.21 1012.98 1013.49 1013.30 1011.50 1009.74 1009.28 1009.15 1008.79 1007.17 1003.99 1001.63 1000.30 999.37 998.81 998.81 998.26 998.20 998.69 999.24 999.70 1000.73 1000.84 1000.74 1000.21 999.84 999.62 1000.02 1000.83 1001.67 1003.53 1005.17 1006.46 1007.06 1007.00 1005.69 1006.35 1004.30 1003.49 1002.63 1002.38 1002.96 1003.86 1004.53 1005.51
1013.23 1011.74 1010.67 1010.07 1009.40 1010.25 1010.26 1009.87 1008.24 1005.41 1003.69 1001.45 1000.73 999.64 999.28 998.67 998.82 998.86 999.04 999.54 999.85 1000.25 1001.02 1001.26 1000.53 999.66 999.41 999.76 1000.55 1001.76 1003.03 1004.95 1006.05 1007.14 1006.70 1006.01 1005.19 1002.77 1001.50 1001.40 1001.58 1002.28 1002.76 1003.80 1004.69
1012.34 1011.14 1010.51 1008.38 1009.25 1009.82 1009.76 1009.27 1006.76 1004.99 1003.19 1002.17 1001.15 1000.41 999.93 999.54 999.44 999.33 999.52 999.56 999.39 999.87 1000.56 1001.25 1000.42 999.47 999.19 999.40 1000.09 1001.28 1002.46 1003.18 1004.94 1006.52 1006.38 1005.31 1003.92 1001.95 1000.91 1000.99 1001.18 1001.55 1002.56 1003.08 1003.55
1013.11 1011.96 1009.75 1008.04 1008.66 1009.19 1009.18 1007.64 1005.98 1004.20 1002.76 1002.21 1001.88 1001.08 1000.75 1000.42 1000.33 1000.04 999.64 998.67 998.73 998.94 999.35 1000.16 1000.46 999.46 998.99 999.07 999.38 999.85 1001.21 1003.20 1004.66 1005.75 1005.95 1004.97 1003.52 1002.01 1001.19 1000.63 1001.02 1001.48 1001.65 1002.10 1002.74
1013.50 1012.05 1008.47 1008.07 1008.57 1008.83 1008.16 1006.88 1005.02 1003.48 1002.93 1002.41 1001.86 1001.35 1000.97 1000.88 1000.59 1000.23 999.52 998.29 998.03 998.09 998.84 999.83 1000.16 999.67 999.01 998.72 998.85 1000.06 1000.78 1002.36 1003.43 1004.46 1004.95 1004.66 1002.88 1000.78 1000.01 999.99 1000.38 1000.44 1000.58 1001.05 1001.89
1014.60 1012.81 1008.96 1008.67 1008.95 1008.66 1007.57 1005.95 1004.23 1003.23 1002.62 1002.26 1001.68 1001.20 1001.15 1000.86 1000.16 999.91 998.83 997.69 996.43 996.68 998.03 998.87 999.59 999.93 998.85 998.30 998.09 998.63 999.61 1000.79 1002.41 1003.99 1004.18 1003.41 1001.37 999.71 999.24 999.38 999.93 1000.09 1000.33 1000.72 1001.26
1015.07 1013.44 1009.23 1008.99 1008.97 1008.45 1007.06 1005.44 1004.29 1003.12 1002.54 1001.90 1001.56 1000.97 1000.60 1000.65 1000.06 998.85 997.77 996.15 995.34 995.48 996.13 997.84 998.83 999.53 999.16 998.56 998.14 998.42 999.21 1000.13 1001.12 1001.77 1002.66 1002.62 1001.00 999.59 999.19 999.26 999.60 1000.20 1000.47 1000.67 1001.01
1015.67 1013.87 1010.61 1009.37 1008.96 1008.54 1007.91 1006.08 1004.50 1002.90 1002.24 1001.61 1001.22 1000.93 1000.40 999.70 999.02 998.45 997.61 996.27 994.75 994.52 994.78 996.03 997.65 998.24 997.67 997.44 997.43 997.93 998.23 998.98 999.47 1000.95 1001.31 1000.96 1000.27 999.49 999.38 999.06 999.42 999.56 1000.31 1000.41 1000.65
1015.63 1013.93 1012.44 1011.09 1009.87 1009.50 1008.34 1006.83 1004.92 1003.47 1002.22 1001.36 1000.83 1000.38 999.55 999.33 998.64 998.24 997.64 996.32 995.00 994.90 995.00 995.55 996.74 997.32 996.72 996.67 997.01 996.82 997.26 997.93 998.21 998.32 999.27 999.35 999.43 998.67 998.42 998.28 998.44 998.55 999.44 1000.26 1000.40
1015.66 1015.04 1013.48 1012.11 1010.75 1009.84 1008.15 1006.84 1005.70 1004.17 1003.17 1001.69 1000.75 999.57 999.02 998.66 997.60 997.78 997.23 997.03 996.01 995.43 995.57 995.55 996.06 996.46 996.62 996.15 996.32 996.35 996.12 996.65 997.07 997.22 997.39 997.69 998.10 997.10 996.98 997.77 998.32 998.44 998.92 999.58 999.99
1015.67 1015.22 1014.63 1012.50 1010.96 1010.09 1008.56 1007.57 1006.11 1005.21 1002.74 1001.85 1000.84 999.95 998.70 997.85 996.93 996.17 996.92 996.75 996.65 996.89 996.23 996.47 996.43 996.84 996.62 996.19 996.31 996.02 995.22 995.38 995.88 996.28 996.41 997.04 997.08 997.01 997.54 997.70 997.76 998.01 998.35 998.84 999.44
Thickness
5744 5749 5754 5759 5764 5769 5775 5781 5785 5789 5792 5797 5803 5804 5809 5812 5819 5824 5829 5855 5857 5862 5859 5855 5854 5852 5848 5838 5844 5840 5786 5775 5783 5778 5788 5803 5790 5802 5812 5797 5801 5800 5789 5788 5785
5740 5744 5749 5753 5759 5765 5771 5778 5784 5788 5792 5795 5802 5807 5807 5811 5814 5824 5866 5868 5868 5865 5854 5846 5842 5849 5832 5836 5837 5820 5783 5792 5811 5810 5801 5809 5803 5804 5798 5792 5791 5794 5796 5791 5787
5737 5741 5745 5750 5754 5760 5765 5773 5781 5786 5791 5796 5800 5806 5808 5809 5814 5842 5876 5873 5872 5869 5861 5856 5852 5846 5828 5832 5827 5822 5801 5822 5818 5825 5824 5815 5807 5814 5797 5784 5798 5795 5793 5790 5785
5734 5738 5742 5747 5752 5756 5761 5768 5776 5783 5789 5794 5799 5804 5808 5808 5798 5863 5874 5877 5873 5868 5858 5850 5842 5826 5818 5816 5834 5816 5835 5836 5829 5830 5822 5812 5814 5806 5804 5803 5811 5807 5802 5793 5786
5731 5736 5741 5744 5749 5754 5759 5764 5771 5779 5786 5791 5797 5802 5807 5809 5826 5870 5875 5875 5870 5862 5854 5847 5835 5828 5817 5824 5833 5827 5836 5839 5836 5827 5820 5822 5813 5810 5807 5815 5812 5804 5800 5792 5788
5725 5732 5738 5743 5748 5753 5758 5763 5769 5776 5782 5789 5793 5798 5802 5798 5866 5870 5873 5868 5866 5859 5852 5850 5842 5845 5831 5828 5831 5845 5839 5835 5830 5819 5818 5812 5807 5811 5807 5816 5807 5804 5798 5795 5792
5722 5726 5733 5740 5746 5751 5758 5763 5768 5775 5781 5786 5789 5794 5798 5823 5868 5870 5867 5864 5863 5861 5848 5854 5854 5842 5836 5824 5847 5844 5815 5824 5818 5815 5809 5820 5798 5794 5813 5813 5804 5803 5802 5799 5799
5720 5723 5728 5736 5742 5749 5756 5763 5770 5776 5783 5784 5787 5791 5797 5857 5864 5863 5867 5860 5863 5862 5855 5856 5856 5843 5835 5841 5839 5819 5807 5794 5814 5816 5822 5819 5782 5803 5814 5809 5802 5803 5802 5801 5802
5715 5721 5726 5731 5738 5745 5753 5762 5769 5777 5779 5776 5778 5785 5798 5852 5843 5864 5866 5853 5853 5855 5855 5858 5852 5833 5830 5804 5790 5805 5782 5787 5796 5821 5820 5810 5788 5806 5812 5806 5800 5802 5803 5805 5801
5710 5715 5722 5729 5737 5742 5749 5763 5767 5768 5771 5769 5777 5776 5813 5824 5843 5858 5861 5858 5846 5841 5834 5834 5826 5811 5800 5785 5754 5785 5774 5794 5804 5821 5816 5801 5802 5809 5810 5806 5802 5803 5804 5805 5807
5707 5711 5716 5723 5732 5739 5746 5757 5761 5761 5764 5767 5778 5787 5807 5829 5842 5845 5853 5843 5839 5827 5803 5821 5801 5787 5804 5813 5807 5803 5794 5799 5818 5827 5812 5804 5803 5809 5811 5806 5802 5802 5802 5803 5805
5701 5707 5713 5719 5727 5732 5735 5741 5747 5744 5746 5776 5787 5796 5811 5820 5806 5830 5847 5820 5813 5797 5810 5802 5788 5819 5827 5820 5812 5808 5798 5792 5815 5824 5814 5801 5799 5812 5812 5813 5816 5813 5810 5812 5811
5695 5701 5707 5714 5724 5726 5726 5736 5742 5742 5731 5780 5794 5805 5808 5807 5802 5811 5829 5820 5808 5795 5796 5789 5812 5826 5822 5817 5807 5800 5798 5802 5802 5809 5810 5799 5779 5793 5809 5815 5818 5822 5823 5819 5815
5689 5695 5698 5705 5720 5713 5726 5739 5734 5734 5713 5759 5780 5803 5807 5809 5796 5827 5831 5821 5805 5790 5792 5796 5825 5817 5815 5814 5815 5794 5823 5826 5809 5793 5769 5806 5748 5781 5800 5805 5814 5820 5821 5823 5820
5683 5688 5688 5688 5692 5703 5734 5734 5734 5731 5674 5771 5781 5813 5802 5793 5810 5812 5835 5816 5795 5798 5791 5790 5812 5810 5806 5818 5826 5813 5831 5821 5813 5796 5782 5781 5763 5785 5797 5789 5812 5825 5827 5827 5823
5679 5683 5682 5685 5684 5711 5722 5724 5726 5689 5677 5748 5780 5774 5775 5783 5799 5808 5807 5818 5817 5798 5800 5800 5826 5822 5819 5837 5833 5846 5827 5802 5786 5776 5748 5780 5775 5771 5790 5813 5828 5830 5832 5833 5828
5673 5682 5679 5679 5690 5708 5713 5712 5685 5669 5736 5742 5750 5764 5766 5762 5776 5786 5777 5776 5767 5749 5755 5789 5798 5820 5832 5817 5825 5817 5787 5745 5745 5739 5735 5783 5770 5790 5820 5841 5846 5842 5839 5840 5834
5669 5681 5690 5693 5698 5693 5694 5686 5669 5710 5717 5746 5750 5759 5751 5766 5763 5768 5763 5757 5771 5772 5755 5749 5755 5797 5820 5809 5798 5798 5786 5742 5728 5721 5753 5768 5753 5801 5844 5852 5857 5851 5850 5843 5836
5664 5673 5679 5695 5688 5685 5683 5659 5680 5702 5728 5731 5738 5735 5734 5746 5750 5751 5747 5754 5773 5773 5752 5737 5753 5806 5813 5822 5816 5798 5772 5800 5763 5754 5743 5757 5788 5824 5844 5841 5850 5849 5845 5842 5843
5643 5648 5666 5684 5680 5676 5664 5665 5688 5713 5726 5726 5710 5728 5720 5726 5724 5729 5733 5761 5768 5775 5785 5766 5755 5791 5809 5818 5817 5809 5811 5772 5751 5737 5737 5754 5779 5784 5825 5830 5836 5839 5842 5846 5847
5621 5633 5667 5669 5666 5660 5652 5664 5693 5713 5715 5707 5708 5710 5720 5718 5723 5719 5728 5758 5770 5775 5778 5762 5757 5775 5798 5784 5790 5791 5783 5778 5772 5754 5737 5735 5757 5813 5836 5836 5836 5846 5853 5854 5850
5590 5614 5647 5650 5644 5640 5649 5666 5697 5699 5706 5701 5709 5710 5711 5718 5718 5719 5728 5749 5786 5785 5756 5763 5750 5751 5770 5801 5818 5808 5796 5794 5771 5750 5747 5752 5766 5839 5843 5842 5845 5848 5853 5851 5854
5573 5578 5628 5631 5624 5633 5649 5667 5679 5687 5687 5693 5696 5709 5716 5709 5704 5726 5741 5777 5788 5781 5768 5761 5733 5726 5745 5776 5797 5790 5793 5791 5778 5771 5751 5752 5766 5834 5840 5841 5843 5839 5843 5846 5848
5549 5567 5602 5611 5613 5625 5624 5641 5658 5687 5687 5695 5696 5702 5705 5710 5728 5725 5738 5767 5788 5792 5796 5789 5738 5752 5751 5768 5786 5786 5796 5793 5794 5762 5760 5766 5796 5822 5827 5835 5837 5842 5841 5843 5846
5533 5555 5573 5582 5598 5596 5612 5625 5645 5657 5677 5689 5688 5694 5704 5695 5715 5723 5739 5755 5777 5785 5785 5775 5752 5748 5782 5794 5790 5798 5801 5795 5793 5803 5792 5796 5793 5817 5827 5835 5841 5846 5843 5836 5841
5521 5526 5541 5553 5568 5586 5602 5618 5626 5644 5655 5669 5677 5699 5702 5699 5722 5719 5733 5737 5753 5774 5775 5772 5756 5761 5764 5783 5794 5792 5805 5805 5803 5800 5811 5804 5799 5833 5845 5838 5835 5841 5840 5836 5834
5497 5505 5513 5541 5559 5571 5588 5597 5617 5626 5653 5665 5676 5686 5694 5710 5732 5745 5744 5745 5752 5750 5759 5758 5762 5745 5753 5776 5780 5765 5796 5802 5808 5813 5818 5794 5815 5826 5827 5828 5833 5835 5840 5837 5834